Flag for Germany Weather past 2 weeks in Friesoythe, Lower Saxony, Germany

Now
63 °F

Mild.


Feels Like: 63 °F
Forecast: 58 / 73 °F
Wind: 6 mph from Southwest

Location: Meppen-Mil

Current Time: Jul 6, 2015 at 1:40:32 AM

Latest Report: Jul 6, 2015 at 12:20 AM


Visibility: 5 mi

Pressure: 30.01 "Hg

Humidity: 88%

Dew point: 59 °F

Location of FriesoytheLocation

Historic Weather in Friesoythe — Graph

°F

Friesoythe temperature yesterday

Maximum temperature yesterday: 82 °F (at 5:20 PM)
Minimum temperature yesterday: 63 °F (at 10:20 PM)
Average temperature yesterday: 70 °F

Past Weeks' High & Low Weather Summary

 TemperatureHumidityPressure
High97 °F (Jul 2, 5:20 PM)94% (Jun 22, 12:20 AM)30.27 "Hg (Jun 22, 12:20 AM)
Low46 °F (Jun 23, 2:20 AM)28% (Jul 2, 3:20 PM)29.65 "Hg (Jun 22, 8:20 PM)
Average66 °F69%30.06 "Hg
* Reported Jun 21 12:20 AM — Jul 6 12:20 AM, Friesoythe, Weather by CustomWeather, © 2015

Note: Actual official high and low records may vary slightly from our data, if they occured in-between our weather recording intervals... More about our weather records

Advertising

Friesoythe weather history for previous 24 hours

 ConditionsComfort  
Time TempWeatherWind HumidityBarometerVisibility
12:20 AM
Mon, Jul 6
63 °FMild.6 mph88%30.01 "Hg5 mi
11:20 PM
Sun, Jul 5
63 °FMild.3 mph88%29.98 "Hg4 mi
10:20 PM63 °FMild.3 mph94%29.98 "Hg4 mi
9:20 PM64 °FMild.2 mph88%29.98 "Hg4 mi
8:20 PM64 °FMild.5 mph88%29.95 "Hg4 mi
7:20 PM68 °FMild.10 mph69%29.95 "Hg4 mi
6:20 PM72 °FMild.17 mph69%29.92 "Hg4 mi
5:20 PM82 °FWarm.1 mph58%29.86 "Hg4 mi
4:20 PM81 °FWarm.3 mph58%29.89 "Hg4 mi
3:20 PM79 °FWarm.3 mph61%29.92 "Hg4 mi
2:20 PM75 °FMild.6 mph69%29.98 "Hg4 mi
1:20 PM75 °FMild.6 mph69%29.98 "Hg3 mi
12:20 PM75 °FMild.3 mph74%30.04 "Hg3 mi
11:20 AM73 °FMild.3 mph78%30.04 "Hg3 mi
10:20 AM72 °FMild.6 mph83%30.07 "Hg3 mi
9:20 AM70 °FMild.3 mph83%30.07 "Hg3 mi
8:20 AM72 °FMild.3 mph78%30.09 "Hg3 mi
7:20 AM68 °FMild.1 mph88%30.07 "Hg3 mi
6:20 AM64 °FMild.1 mph94%30.09 "Hg2 mi
5:20 AM64 °FMild.1 mph88%30.09 "Hg2 mi
4:20 AM66 °FMild.5 mph88%30.12 "Hg3 mi
3:20 AM66 °FMild.5 mph88%30.09 "Hg3 mi
2:20 AM66 °FMild.2 mph83%30.12 "Hg4 mi
1:20 AM66 °FMild.1 mph83%30.09 "Hg4 mi
Weather by CustomWeather, © 2015

See weather overviewHow to use our weather pages